TimeCDT,TemperatureF,Dew PointF,Humidity,Sea Level PressureIn,VisibilityMPH,Wind Direction,Wind SpeedMPH,Gust SpeedMPH,PrecipitationIn,Events,Conditions,WindDirDegrees,DateUTC
12:53 AM,73.0,50.0,44,29.68,10.0,South,10.4,-,N/A,,Clear,190,2013-04-23 05:53:00
1:53 AM,71.1,50.0,47,29.68,10.0,SSW,11.5,-,N/A,,Clear,200,2013-04-23 06:53:00
2:53 AM,69.1,51.1,53,29.68,10.0,South,9.2,-,N/A,,Clear,180,2013-04-23 07:53:00
3:53 AM,68.0,51.1,55,29.64,10.0,SSW,12.7,-,N/A,,Clear,200,2013-04-23 08:53:00
4:33 AM,71.6,39.2,31,29.87,7.0,North,29.9,38.0,N/A,,Squalls,360,2013-04-23 09:33:00
4:44 AM,48.2,35.6,62,29.89,6.0,North,23.0,39.1,N/A,,Haze,350,2013-04-23 09:44:00
4:53 AM,48.2,35.6,62,29.89,7.0,North,25.3,32.2,N/A,,Mostly Cloudy,360,2013-04-23 09:53:00
5:19 AM,44.6,33.8,66,29.92,9.0,North,28.8,36.8,N/A,,Scattered Clouds,360,2013-04-23 10:19:00
5:53 AM,44.1,33.1,65,29.83,10.0,North,28.8,35.7,N/A,,Clear,360,2013-04-23 10:53:00
6:53 AM,41.0,32.0,70,29.89,10.0,North,26.5,33.4,N/A,,Clear,10,2013-04-23 11:53:00
7:53 AM,39.0,30.0,70,29.95,10.0,NNE,24.2,-,N/A,,Mostly Cloudy,20,2013-04-23 12:53:00
8:53 AM,41.0,30.0,65,29.99,10.0,NNE,23.0,34.5,N/A,,Overcast,30,2013-04-23 13:53:00
9:53 AM,42.1,30.0,62,30.03,10.0,North,23.0,26.5,N/A,,Overcast,10,2013-04-23 14:53:00
10:21 AM,42.8,30.2,61,30.11,10.0,NNE,21.9,26.5,N/A,,Overcast,20,2013-04-23 15:21:00
10:53 AM,44.1,30.0,58,30.03,10.0,North,18.4,-,N/A,,Overcast,10,2013-04-23 15:53:00
11:53 AM,46.0,30.9,56,30.04,10.0,NNE,16.1,-,N/A,,Overcast,30,2013-04-23 16:53:00
12:53 PM,51.1,32.0,48,30.01,10.0,NE,17.3,21.9,N/A,,Overcast,50,2013-04-23 17:53:00
1:53 PM,53.6,32.0,44,30.07,10.0,NE,10.4,18.4,N/A,,Partly Cloudy,50,2013-04-23 18:53:00
2:53 PM,57.0,32.0,39,29.96,10.0,NE,8.1,17.3,N/A,,Clear,40,2013-04-23 19:53:00
3:53 PM,60.1,33.1,36,29.94,10.0,Variable,6.9,-,N/A,,Clear,0,2013-04-23 20:53:00
4:53 PM,60.1,32.0,35,29.94,10.0,ENE,8.1,16.1,N/A,,Clear,60,2013-04-23 21:53:00
5:53 PM,61.0,30.9,32,29.93,10.0,East,9.2,19.6,N/A,,Clear,90,2013-04-23 22:53:00
6:53 PM,60.1,30.9,33,29.95,10.0,ENE,16.1,19.6,N/A,,Clear,70,2013-04-23 23:53:00
7:53 PM,57.0,30.9,37,29.98,10.0,ENE,16.1,-,N/A,,Clear,70,2013-04-24 00:53:00
8:53 PM,53.1,30.9,43,30.03,10.0,ENE,18.4,-,N/A,,Clear,60,2013-04-24 01:53:00
9:53 PM,48.0,28.0,46,30.11,10.0,NE,24.2,33.4,N/A,,Clear,50,2013-04-24 02:53:00
10:53 PM,42.1,27.0,55,30.19,10.0,NE,26.5,35.7,N/A,,Clear,40,2013-04-24 03:53:00
11:53 PM,39.9,27.0,60,30.20,10.0,NE,23.0,-,N/A,,Clear,40,2013-04-24 04:53:00